Weather Roundup
Issued by NWS Springfield, MO

Home | Current Version | Previous Version | Text Only | Print | Product List | Glossary On
Versions: 1 2 3 4 5 6 7 8 9 10 11 12 13 14 15 16 17 18 19 20 21 22 23 24 25 26 27 28 29 30 31 32 33 34 35 36 37 38 39 40 41 42 43 44 45 46 47 48 49 50
000
NZUS99 KSGF 050810
HRRSGF

HOURLY WEATHER
NATIONAL WEATHER SERVICE SPRINGFIELD MO
300 AM CDT WED AUG 05 2015

......SGF CWA......

CITY           SKY/WX    TMP DP  RH WIND       PRES   REMARKS
SPRINGFIELD    CLOUDY    71  69  93 SE9       29.99R
JOPLIN         LGT RAIN  73  70  90 SE5       29.96F
WEST PLAINS    CLOUDY    69  65  86 NW5       30.03S
ROLLA          LGT RAIN  69  64  84 S8        30.00F
OSAGE BEACH    CLOUDY    70  66  88 S7        29.99F
BRANSON        CLOUDY    68  68 100 SE8       30.00F

......SURROUNDING SGF CWA......

CITY           SKY/WX    TMP DP  RH WIND       PRES   REMARKS
CHANUTE        CLOUDY    72  70  93 E6        29.95F FOG
PARSONS        PTCLDY    73  71  93 VRB3      29.95F
COFFEYVILLE    CLEAR     71  70  96 NE5       29.93F
EMPORIA        CLOUDY    70  67  90 E7        29.96S
GROVE OK       MOCLDY    73  73 100 CALM      29.95F
ROGERS AR      CLOUDY    73  70  90 SE10      29.98S
SILOAM SPRINGS CLOUDY    73  66  78 SE6       29.96S
HARRISON AR    MOCLDY    70  69  97 SE9       30.00F
NEAR YELLVILLE CLOUDY    70  66  88 E7        29.98F

......KANSAS AND MISSOURI......

CITY           SKY/WX    TMP DP  RH WIND       PRES   REMARKS
KANSAS CTY INT MOCLDY    70  68  93 SE5       29.99S
DOWNTOWN KC    CLOUDY    73  70  90 NE3       29.98S
COLUMBIA       MOCLDY    69  66  90 SW5       30.02S
SEDALIA        CLOUDY    71  68  90 CALM      30.01R
ST JOSEPH      CLOUDY    70  68  93 SE5       29.99R
ST LOUIS       MOCLDY    75  68  78 E9        30.00S
SPIRIT OF STL  MOCLDY    75  71  87 NE8       29.98S
KIRKSVILLE     CLEAR     67  63  87 NE6       30.00S
WICHITA        MOCLDY    73  69  87 SE8       29.92F
TOPEKA         MOCLDY    70  68  93 E3        29.98R
OLATHE         CLOUDY    70  69  97 SE6       29.98S

......TENNESSEE......

CITY           SKY/WX    TMP DP  RH WIND       PRES   REMARKS
MEMPHIS        MOCLDY    85  68  56 SE5       29.96F
NASHVILLE      PTCLDY    78  71  79 NE5       30.00F

......ARKANSAS.......

CITY           SKY/WX    TMP DP  RH WIND       PRES   REMARKS
FAYETTEVILLE   CLOUDY    74  70  87 E3        29.97S
FT SMITH       CLOUDY    78  71  79 NE8       29.93R
LITTLE ROCK    CLOUDY    81  73  76 CALM      29.94F

......OKLAHOMA.......

CITY           SKY/WX    TMP DP  RH WIND       PRES   REMARKS
TULSA          CLOUDY    76  73  91 E3        29.90F
PONCA CITY     PTCLDY    74  71  91 SE6       29.91  FOG
MCALESTER      CLEAR     77  68  73 CALM      29.93R
OKLAHOMA CITY  PTCLDY    73  71  93 S6        29.91F

......IOWA............

CITY           SKY/WX    TMP DP  RH WIND       PRES   REMARKS
DES MOINES     MOCLDY    70  62  76 SE7       30.00S
QUAD CITIES    PTCLDY    63  60  90 CALM      30.03S

......ILLINOIS........

CITY           SKY/WX    TMP DP  RH WIND       PRES   REMARKS
QUINCY         FAIR      68  63  84 E7        30.00F
CHICAGO        PTCLDY    63  59  87 CALM      30.02F



USA.gov is the U.S. government's official web portal to all federal, state and local government web resources and services.